This demonstration page uses our WeatherBlox Daily Observations layout. Learn more.

Left ArrowRight Arrow

Hourly Observations for September 23, 2022

Temp ( °F °C ) Dew Point ( °F °C ) Humidity (%) Winds ( mph kmh ) Pressure ( in mb ) Visibility ( mi km ) Precip ( " mm )
12:53 am 00:53 Cloudy 54 12.2 47 8.3 77 77 S 5 7 30.16 1021 10 16 0.00 0.00
1:53 am 01:53 Cloudy 53 11.7 47 8.3 80 80 SSE 7 11 30.14 1021 10 16 0.00 0.00
2:53 am 02:53 Cloudy 53 11.7 48 8.9 83 83 SSE 9 15 30.10 1019 10 16 0.00 0.00
3:27 am 03:27 Cloudy 52 11.1 49 9.4 89 89 SSE 10 17 30.09 1019 10 16 0.00 0.00
3:53 am 03:53 Cloudy 52 11.1 49 9.4 89 89 SSE 9 15 30.08 1019 10 16 0.00 0.00
4:53 am 04:53 Cloudy 53 11.7 49 9.4 86 86 S 7 11 30.06 1018 10 16 0.00 0.00
5:50 am 05:50 Cloudy 54 12 48 9 82 82 S 6 9 30.05 1018 10 16 0.00 0.00
6:01 am 06:01 Cloudy 53 11.7 49 9.4 86 86 SSE 5 7 30.07 1018 10 16 0.00 0.00
6:53 am 06:53 Cloudy 53 11.7 48 8.9 83 83 SE 6 9 30.05 1018 10 16 0.00 0.00
7:19 am 07:19 Cloudy 52 11.1 48 8.9 86 86 SSE 7 11 30.04 1017 10 16 0.00 0.00
7:53 am 07:53 Cloudy 52 11.1 49 9.4 89 89 SSE 10 17 30.03 1017 10 16 0.00 0.00
8:53 am 08:53 Cloudy 53 11.7 50 10 89 89 S 10 17 30.03 1017 10 16 0.00 0.00
9:46 am 09:46 Cloudy 55 12.8 50 10 83 83 S 10 17 30.01 1016 10 16 0.00 0.00
9:53 am 09:53 Cloudy 55 12.8 50 10 83 83 S 9 15 30.02 1017 10 16 0.00 0.00
10:53 am 10:53 Cloudy 58 14.4 51 10.6 78 78 S 13 20 29.99 1016 10 16 0.00 0.00
11:11 am 11:11 Cloudy 58 14.4 51 10.6 78 78 SSW 10 17 29.98 1015 10 16 0.00 0.00
11:53 am 11:53 Cloudy 59 15 51 10.6 75 75 SW 8 13 29.98 1015 10 16 0.00 0.00
12:53 pm 12:53 Cloudy 61 16.1 52 11.1 72 72 SW 10 17 29.96 1015 10 16 0.00 0.00
1:53 pm 13:53 Mostly Sunny 65 18.3 54 12.2 68 68 SSW 9 15 29.93 1014 10 16 0.00 0.00
2:53 pm 14:53 Sunny 68 20 54 12.2 61 61 SSW 9 15 29.91 1013 10 16 0.00 0.00
3:53 pm 15:53 Sunny 73 22.8 52 11.1 48 48 W 13 20 29.89 1012 10 16 0.00 0.00
4:53 pm 16:53 Sunny 75 23.9 51 10.6 43 43 WSW 9 15 29.87 1012 10 16 0.00 0.00
5:53 pm 17:53 Sunny 75 23.9 52 11.1 45 45 SW 9 15 29.86 1011 10 16 0.00 0.00
6:53 pm 18:53 Sunny 73 22.8 53 11.7 50 50 SSW 9 15 29.87 1011 10 16 0.00 0.00
7:53 pm 19:53 Clear 69 20.6 55 12.8 61 61 SSW 7 11 29.88 1012 10 16 0.00 0.00
8:53 pm 20:53 Clear 66 18.9 55 12.8 68 68 SW 5 7 29.91 1013 10 16 0.00 0.00
9:53 pm 21:53 Clear 63 17.2 54 12.2 72 72 SSW 6 9 29.93 1013 10 16 0.00 0.00
10:53 pm 22:53 Clear 61 16.1 54 12.2 78 78 SSW 6 9 29.94 1014 10 16 0.00 0.00
11:53 pm 23:53 Clear 58 14.4 53 11.7 84 84 Calm 29.95 1014 10 16 0.00 0.00

Powered by AerisWeather